Lid_Strength_Index
5 5 5 5 6 6 6 6 6 5 5 5 4 4 4 4 4 4 5 4 5 7 6 5 5 6 6 6 9 7 7 8 8 11 12 11 12 10 11 10 12 12 12 11 10 12 14 6 6 9 7 6 5 5
5 5 5 6 6 6 6 6 6 6 6 5 4 4 4 4 4 4 6 4 3 6 6 4 4 3 4 4 6 6 7 7 7 10 10 10 11 10 11 13 9 13 11 12 10 9 7 6 6 6 5 6 5 5
5 5 5 5 5 6 6 6 6 6 6 5 5 5 4 4 4 4 5 5 4 6 6 5 6 3 2 3 3 8 7 5 6 4 8 9 12 9 13 12 11 9 7 10 10 8 8 6 5 5 5 5 5 4
4 3 4 5 5 6 6 6 6 6 6 6 5 5 5 4 4 4 6 4 6 6 9 8 4 5 3 3 3 4 4 4 4 4 8 9 11 7 10 10 10 9 8 9 9 8 7 6 5 5 5 4 4 4
3 3 3 4 5 5 6 6 6 6 6 6 6 5 5 5 4 4 4 4 4 6 10 8 6 5 4 5 5 4 4 5 6 7 8 9 7 8 7 8 9 8 10 10 10 7 7 7 5 4 5 5 4 4
3 4 4 4 5 5 6 6 6 6 6 6 5 5 5 5 5 6 7 3 3 4 8 10 6 6 5 5 6 5 5 5 5 7 7 6 5 7 10 11 7 6 6 6 7 5 5 5 4 4 5 4 4 4
4 4 3 4 4 5 5 6 6 6 6 6 5 5 5 5 5 7 7 4 3 4 8 10 9 6 5 5 5 6 5 5 5 7 7 7 7 7 9 11 6 5 5 5 5 5 6 5 5 4 4 4 4 3
3 3 3 4 4 5 6 6 6 6 6 6 6 5 6 5 5 6 3 3 4 7 8 11 10 8 5 6 7 4 6 5 5 6 6 7 7 8 11 7 6 5 5 4 4 4 4 4 4 4 4 4 4 4
5 4 4 5 5 5 6 6 6 6 6 6 6 5 6 7 7 5 3 2 3 6 9 9 11 11 5 6 5 6 6 10 6 9 8 7 9 11 8 7 6 5 5 5 4 4 4 5 5 5 4 4 4 4
5 5 4 4 5 5 5 6 6 6 6 6 6 7 8 5 2 2 4 6 6 7 8 10 8 10 8 7 7 7 7 9 12 9 6 9 10 6 5 5 5 4 4 4 6 6 5 5 5 4 4 4 4 4
4 4 4 4 4 5 5 5 5 5 6 7 9 8 6 5 4 6 7 8 8 10 9 9 9 9 5 9 9 6 9 9 13 10 10 10 11 8 5 5 5 4 4 4 4 4 3 3 4 4 4 3 3 3
4 4 4 4 4 4 4 5 5 6 7 8 8 7 7 6 7 9 9 8 9 10 8 9 9 8 7 5 8 8 10 9 14 8 11 13 8 6 6 5 5 4 4 4 4 4 3 3 3 3 3 3 3 3
3 3 3 4 4 4 4 4 5 5 5 5 8 9 8 8 12 11 12 11 11 8 8 8 9 7 6 6 8 9 11 12 7 11 12 10 7 6 5 5 5 4 4 4 4 3 3 3 3 3 3 3 3 3
3 3 3 3 4 4 4 4 4 4 5 9 10 13 11 11 9 9 9 9 6 6 7 7 8 8 7 9 9 12 10 10 13 14 13 9 7 6 5 5 5 5 5 4 4 4 3 3 3 3 3 2 3 3
3 3 3 3 3 3 4 4 4 4 6 9 9 12 10 8 7 6 5 6 5 5 6 7 8 8 9 10 9 10 12 14 13 13 10 8 7 6 6 5 5 5 5 4 4 4 3 3 3 3 3 2 2 2
3 3 4 4 4 4 4 4 4 4 6 8 9 10 8 8 7 6 6 7 6 6 5 6 9 10 11 11 13 14 14 14 12 9 7 6 6 6 5 5 5 4 4 4 3 3 3 3 3 3 2 3 2 2
4 5 4 4 4 4 4 5 5 7 8 8 9 8 8 7 8 7 7 6 5 7 9 8 11 12 9 12 12 11 12 10 8 7 6 6 6 6 5 5 5 4 4 4 3 4 3 3 3 3 4 3 3 2
6 4 3 4 3 4 5 5 6 8 9 8 10 8 7 6 7 7 7 6 6 7 8 9 8 10 12 13 12 9 8 7 6 6 6 5 5 5 4 4 4 4 4 4 3 3 4 4 4 4 4 3 3 3
5 3 3 3 3 4 6 6 6 10 9 8 8 7 7 6 6 6 6 6 5 6 7 8 9 11 10 8 8 7 7 7 7 6 5 4 4 4 4 3 4 4 3 3 4 4 4 3 3 3 3 3 4 3
4 4 3 2 3 6 7 7 5 8 10 8 7 7 7 6 5 6 6 6 6 6 8 8 8 7 7 6 5 6 6 4 5 6 6 5 4 4 4 4 4 3 3 3 3 5 3 3 3 3 3 3 3 3
5 4 4 4 5 6 7 8 8 7 7 8 7 7 6 6 6 6 6 6 7 7 8 7 6 5 3 4 3 4 4 4 5 5 5 6 4 3 3 3 3 3 3 3 3 3 4 3 3 2 2 3 2 2
5 4 5 5 6 6 7 6 8 7 7 7 7 6 7 7 7 6 5 7 7 6 6 6 5 5 4 4 4 3 3 3 3 3 5 4 4 4 4 3 3 4 3 3 3 3 3 2 2 2 2 2 3 2
4 4 5 6 8 9 10 6 8 7 9 7 6 8 8 7 6 5 8 6 5 4 3 4 3 3 4 3 3 3 3 3 4 4 3 3 3 3 3 3 2 3 3 3 2 2 3 5 3 2 2 2 1 2
4 6 8 8 9 11 8 9 7 7 7 8 8 9 8 7 5 7 9 7 5 4 4 4 4 4 4 3 4 4 3 3 3 3 3 3 4 3 3 3 2 2 2 2 2 2 2 2 4 2 2 2 2 2
10 10 10 12 9 9 9 8 8 8 10 8 9 9 8 6 10 9 9 7 5 5 4 4 4 4 5 4 4 3 2 3 4 4 3 2 3 3 3 2 2 2 1 2 3 2 2 2 2 2 2 2 2 2
13 9 11 9 9 9 9 10 10 9 9 9 9 8 7 9 11 11 9 6 5 5 4 4 4 5 4 4 4 4 3 2 2 4 3 2 3 3 3 3 3 3 1 1 2 3 3 2 2 3 3 3 7 3
12 10 8 7 8 8 8 7 7 9 9 10 9 9 9 12 11 9 5 4 5 4 3 2 3 4 4 4 3 2 2 1 2 2 2 1 1 1 2 3 3 2 1 1 1 2 2 3 2 2 3 2 2 2
9 9 10 8 8 7 9 9 9 9 8 7 8 10 11 10 10 6 4 2 2 2 2 2 2 2 3 2 2 2 2 1 1 1 1 1 1 1 1 1 1 8 2 2 1 1 2 2 2 2 2 2 2 2
9 8 8 9 8 8 8 8 9 7 5 6 8 9 7 5 5 5 4 3 3 3 3 4 3 2 2 2 1 2 2 2 3 4 5 4 4 3 1 1 1 1 1 1 9 6 2 1 2 2 2 2 2 1
9 7 9 9 9 9 7 6 7 6 6 6 6 6 6 6 4 2 3 3 3 4 3 3 2 3 3 3 3 3 1 1 2 3 4 4 3 2 1 1 1 1 1 1 1 1 6 2 3 1 2 2 2 2
7 8 9 9 9 8 7 6 6 6 7 7 6 7 7 6 4 3 3 3 3 3 3 3 3 2 3 3 3 4 4 2 1 1 1 1 1 1 1 1 1 1 1 1 1 1 2 2 2 2 2 2 2 3
8 9 9 10 8 6 6 7 7 7 6 6 6 5 5 6 7 5 3 3 3 4 5 3 3 3 2 1 1 1 6 1 1 1 1 1 1 1 0 0 0 1 1 1 1 1 2 2 2 2 2 2 2 2
8 8 8 8 8 7 6 6 7 7 6 7 6 6 6 6 8 4 1 1 2 3 3 3 3 2 1 1 2 2 3 1 4 8 7 7 6 3 1 0 0 0 1 1 1 1 1 1 2 2 2 2 2 1